Time,TemperatureF,DewpointF,PressureIn,WindDirection,WindDirectionDegrees,WindSpeedMPH,WindSpeedGustMPH,Humidity,HourlyPrecipIn,Conditions,Clouds,dailyrainin,SoftwareType,DateUTC
2013-09-17 00:02:00,54.7,45.9,30.11,SSE,158,4.0,9.0,72,0.00,,CLR,0.00,VWS V14.00,2013-09-17 05:02:00,
2013-09-17 00:07:00,54.6,45.4,30.11,SSE,159,0.0,9.0,71,0.00,,CLR,0.00,VWS V14.00,2013-09-17 05:07:00,
2013-09-17 00:12:00,54.6,45.8,30.10,SSE,163,0.0,10.0,72,0.00,,CLR,0.00,VWS V14.00,2013-09-17 05:12:00,
2013-09-17 00:17:00,54.4,45.6,30.11,South,169,2.0,10.0,72,0.00,,CLR,0.00,VWS V14.00,2013-09-17 05:17:00,
2013-09-17 00:22:00,54.3,45.5,30.11,SSE,152,0.0,0.0,72,0.00,,CLR,0.00,VWS V14.00,2013-09-17 05:22:00,
2013-09-17 00:27:00,54.1,45.7,30.11,SSE,163,4.0,8.0,73,0.00,,CLR,0.00,VWS V14.00,2013-09-17 05:27:00,
2013-09-17 00:32:00,54.1,45.7,30.11,SSE,157,0.0,3.0,73,0.00,,CLR,0.00,VWS V14.00,2013-09-17 05:32:00,
2013-09-17 00:37:00,54.1,45.7,30.11,SSE,167,5.0,9.0,73,0.00,,CLR,0.00,VWS V14.00,2013-09-17 05:37:00,
2013-09-17 00:42:00,54.2,46.1,30.11,South,174,3.0,10.0,74,0.00,,CLR,0.00,VWS V14.00,2013-09-17 05:42:00,
2013-09-17 00:47:00,54.3,46.2,30.11,SSE,161,0.0,14.0,74,0.00,,CLR,0.00,VWS V14.00,2013-09-17 05:47:00,
2013-09-17 00:52:00,54.2,46.1,30.11,SSE,163,0.0,8.0,74,0.00,,CLR,0.00,VWS V14.00,2013-09-17 05:52:00,
2013-09-17 00:57:00,54.1,46.0,30.10,SSE,154,0.0,8.0,74,0.00,,CLR,0.00,VWS V14.00,2013-09-17 05:57:00,
2013-09-17 01:02:00,54.1,46.4,30.10,SSE,162,4.0,10.0,75,0.00,,CLR,0.00,VWS V14.00,2013-09-17 06:02:00,
2013-09-17 01:07:00,54.1,46.4,30.10,SSE,149,0.0,12.0,75,0.00,,CLR,0.00,VWS V14.00,2013-09-17 06:07:00,
2013-09-17 01:12:00,54.0,46.3,30.10,SE,143,0.0,7.0,75,0.00,,CLR,0.00,VWS V14.00,2013-09-17 06:12:00,
2013-09-17 01:17:00,53.9,46.5,30.10,South,174,0.0,15.0,76,0.00,,CLR,0.00,VWS V14.00,2013-09-17 06:17:00,
2013-09-17 01:22:00,53.8,46.4,30.10,South,177,6.0,10.0,76,0.00,,CLR,0.00,VWS V14.00,2013-09-17 06:22:00,
2013-09-17 01:27:00,53.7,46.3,30.10,South,180,0.0,14.0,76,0.00,,CLR,0.00,VWS V14.00,2013-09-17 06:27:00,
2013-09-17 01:32:00,53.7,46.7,30.10,SSE,147,0.0,7.0,77,0.00,,CLR,0.00,VWS V14.00,2013-09-17 06:32:00,
2013-09-17 01:37:00,53.7,46.7,30.10,SSE,163,9.0,11.0,77,0.00,,CLR,0.00,VWS V14.00,2013-09-17 06:37:00,
2013-09-17 01:42:00,53.8,46.8,30.10,SE,142,0.0,13.0,77,0.00,,CLR,0.00,VWS V14.00,2013-09-17 06:42:00,
2013-09-17 01:47:00,53.9,46.9,30.10,SSE,157,3.0,13.0,77,0.00,,CLR,0.00,VWS V14.00,2013-09-17 06:47:00,
2013-09-17 01:52:00,53.9,47.2,30.10,SSE,163,0.0,10.0,78,0.00,,CLR,0.00,VWS V14.00,2013-09-17 06:52:00,
2013-09-17 01:57:00,53.9,47.2,30.09,SE,137,0.0,10.0,78,0.00,,CLR,0.00,VWS V14.00,2013-09-17 06:57:00,
2013-09-17 02:03:00,53.9,47.2,30.10,SE,132,6.0,9.0,78,0.00,,CLR,0.00,VWS V14.00,2013-09-17 07:03:00,
2013-09-17 02:08:00,53.9,47.5,30.10,SE,146,2.0,12.0,79,0.00,,CLR,0.00,VWS V14.00,2013-09-17 07:08:00,
2013-09-17 02:13:00,53.8,47.5,30.10,SSE,165,5.0,12.0,79,0.00,,CLR,0.00,VWS V14.00,2013-09-17 07:13:00,
2013-09-17 02:18:00,53.8,47.5,30.10,SE,131,4.0,12.0,79,0.00,,CLR,0.00,VWS V14.00,2013-09-17 07:18:00,
2013-09-17 02:23:00,53.8,47.5,30.09,SSE,165,0.0,9.0,79,0.00,,CLR,0.00,VWS V14.00,2013-09-17 07:23:00,
2013-09-17 02:28:00,53.7,47.3,30.09,SSE,154,3.0,11.0,79,0.00,,CLR,0.00,VWS V14.00,2013-09-17 07:28:00,
2013-09-17 02:33:00,53.6,47.3,30.09,South,177,7.0,7.0,79,0.00,,CLR,0.00,VWS V14.00,2013-09-17 07:33:00,
2013-09-17 02:38:00,53.5,47.2,30.09,SE,141,0.0,12.0,79,0.00,,CLR,0.00,VWS V14.00,2013-09-17 07:38:00,
2013-09-17 02:43:00,53.4,47.4,30.09,SSE,155,0.0,6.0,80,0.00,,CLR,0.00,VWS V14.00,2013-09-17 07:43:00,
2013-09-17 02:48:00,53.3,47.3,30.08,SSE,156,0.0,9.0,80,0.00,,CLR,0.00,VWS V14.00,2013-09-17 07:48:00,
2013-09-17 02:53:00,53.2,47.5,30.08,SSE,167,0.0,9.0,81,0.00,,CLR,0.00,VWS V14.00,2013-09-17 07:53:00,
2013-09-17 02:58:00,53.2,47.5,30.08,SSE,158,2.0,9.0,81,0.00,,CLR,0.00,VWS V14.00,2013-09-17 07:58:00,
2013-09-17 03:03:00,53.1,47.4,30.08,SE,143,2.0,6.0,81,0.00,,CLR,0.00,VWS V14.00,2013-09-17 08:03:00,
2013-09-17 03:08:00,53.1,47.8,30.08,SSE,154,0.0,9.0,82,0.00,,CLR,0.00,VWS V14.00,2013-09-17 08:08:00,
2013-09-17 03:13:00,53.1,47.8,30.08,SSE,160,1.0,9.0,82,0.00,,CLR,0.00,VWS V14.00,2013-09-17 08:13:00,
2013-09-17 03:18:00,53.1,47.8,30.08,SSE,154,1.0,9.0,82,0.00,,CLR,0.00,VWS V14.00,2013-09-17 08:18:00,
2013-09-17 03:23:00,53.1,47.8,30.08,SSE,151,0.0,11.0,82,0.00,,CLR,0.00,VWS V14.00,2013-09-17 08:23:00,
2013-09-17 03:28:00,53.1,47.8,30.07,SE,144,5.0,11.0,82,0.00,,CLR,0.00,VWS V14.00,2013-09-17 08:28:00,
2013-09-17 03:33:00,53.1,48.1,30.07,SSE,159,4.0,15.0,83,0.00,,CLR,0.00,VWS V14.00,2013-09-17 08:33:00,
2013-09-17 03:38:00,53.1,47.8,30.07,SE,133,4.0,15.0,82,0.00,,CLR,0.00,VWS V14.00,2013-09-17 08:38:00,
2013-09-17 03:43:00,53.1,48.1,30.07,SSE,163,0.0,10.0,83,0.00,,CLR,0.00,VWS V14.00,2013-09-17 08:43:00,
2013-09-17 03:48:00,53.1,48.1,30.07,SSE,154,4.0,11.0,83,0.00,,CLR,0.00,VWS V14.00,2013-09-17 08:48:00,
2013-09-17 03:53:00,53.0,48.0,30.07,SE,146,2.0,10.0,83,0.00,,CLR,0.00,VWS V14.00,2013-09-17 08:53:00,
2013-09-17 03:58:00,53.0,48.0,30.06,SSE,166,3.0,10.0,83,0.00,,CLR,0.00,VWS V14.00,2013-09-17 08:58:00,
2013-09-17 04:03:00,53.0,48.0,30.06,SSE,164,7.0,10.0,83,0.00,,CLR,0.00,VWS V14.00,2013-09-17 09:03:00,
2013-09-17 04:08:00,53.0,48.0,30.06,SSE,154,0.0,11.0,83,0.00,,CLR,0.00,VWS V14.00,2013-09-17 09:08:00,
2013-09-17 04:13:00,52.9,47.9,30.06,South,171,5.0,10.0,83,0.00,,CLR,0.00,VWS V14.00,2013-09-17 09:13:00,
2013-09-17 04:18:00,53.0,48.0,30.06,SSE,151,5.0,11.0,83,0.00,,CLR,0.00,VWS V14.00,2013-09-17 09:18:00,
2013-09-17 04:23:00,53.0,48.0,30.06,SE,144,3.0,12.0,83,0.00,,CLR,0.00,VWS V14.00,2013-09-17 09:23:00,
2013-09-17 04:28:00,52.9,47.9,30.05,SSE,156,2.0,12.0,83,0.00,,CLR,0.00,VWS V14.00,2013-09-17 09:28:00,
2013-09-17 04:33:00,53.0,48.0,30.06,SE,135,11.0,13.0,83,0.00,,CLR,0.00,VWS V14.00,2013-09-17 09:33:00,
2013-09-17 04:38:00,53.0,48.0,30.05,SSE,156,2.0,15.0,83,0.00,,CLR,0.00,VWS V14.00,2013-09-17 09:38:00,
2013-09-17 04:43:00,53.0,48.0,30.05,SSE,150,12.0,12.0,83,0.00,,CLR,0.00,VWS V14.00,2013-09-17 09:43:00,
2013-09-17 04:48:00,53.0,48.3,30.05,South,175,7.0,12.0,84,0.00,,CLR,0.00,VWS V14.00,2013-09-17 09:48:00,
2013-09-17 04:53:00,53.0,48.0,30.05,SSE,167,8.0,12.0,83,0.00,,CLR,0.00,VWS V14.00,2013-09-17 09:53:00,
2013-09-17 04:58:00,53.1,48.1,30.05,SSE,161,1.0,12.0,83,0.00,,CLR,0.00,VWS V14.00,2013-09-17 09:58:00,
2013-09-17 05:03:00,53.1,48.4,30.04,SSE,154,0.0,10.0,84,0.00,,CLR,0.00,VWS V14.00,2013-09-17 10:03:00,
2013-09-17 05:08:00,53.1,48.4,30.04,SSE,159,3.0,11.0,84,0.00,,CLR,0.00,VWS V14.00,2013-09-17 10:08:00,
2013-09-17 05:13:00,53.1,48.4,30.03,South,169,3.0,12.0,84,0.00,,CLR,0.00,VWS V14.00,2013-09-17 10:13:00,
2013-09-17 05:18:00,53.1,48.4,30.03,SSE,147,0.0,15.0,84,0.00,,CLR,0.00,VWS V14.00,2013-09-17 10:18:00,
2013-09-17 05:23:00,53.0,48.3,30.03,SSE,150,8.0,10.0,84,0.00,,CLR,0.00,VWS V14.00,2013-09-17 10:23:00,
2013-09-17 05:28:00,53.0,48.3,30.03,SSE,155,8.0,12.0,84,0.00,,CLR,0.00,VWS V14.00,2013-09-17 10:28:00,
2013-09-17 05:33:00,53.1,48.4,30.03,SSE,150,4.0,11.0,84,0.00,,CLR,0.00,VWS V14.00,2013-09-17 10:33:00,
2013-09-17 05:38:00,53.1,48.4,30.03,SE,139,1.0,11.0,84,0.00,,CLR,0.00,VWS V14.00,2013-09-17 10:38:00,
2013-09-17 05:43:00,53.1,48.4,30.02,SE,139,3.0,15.0,84,0.00,,CLR,0.00,VWS V14.00,2013-09-17 10:43:00,
2013-09-17 05:48:00,53.1,48.4,30.02,SSE,160,5.0,15.0,84,0.00,,CLR,0.00,VWS V14.00,2013-09-17 10:48:00,
2013-09-17 05:53:00,53.0,48.3,30.02,SE,137,0.0,10.0,84,0.00,,CLR,0.00,VWS V14.00,2013-09-17 10:53:00,
2013-09-17 05:58:00,53.0,48.3,30.02,SE,146,3.0,11.0,84,0.00,,CLR,0.00,VWS V14.00,2013-09-17 10:58:00,
2013-09-17 06:03:00,52.9,48.2,30.02,SE,143,6.0,9.0,84,0.00,,CLR,0.00,VWS V14.00,2013-09-17 11:03:00,
2013-09-17 06:08:00,52.9,48.5,30.01,SSE,156,4.0,12.0,85,0.00,,CLR,0.00,VWS V14.00,2013-09-17 11:08:00,
2013-09-17 06:13:00,52.7,48.3,30.01,SE,144,7.0,13.0,85,0.00,,CLR,0.00,VWS V14.00,2013-09-17 11:13:00,
2013-09-17 06:18:00,52.7,48.3,30.01,SSE,149,0.0,13.0,85,0.00,,CLR,0.00,VWS V14.00,2013-09-17 11:18:00,
2013-09-17 06:23:00,52.7,48.3,30.01,SE,134,6.0,14.0,85,0.00,,CLR,0.00,VWS V14.00,2013-09-17 11:23:00,
2013-09-17 06:28:00,52.8,48.4,30.01,SE,130,4.0,14.0,85,0.00,,CLR,0.00,VWS V14.00,2013-09-17 11:28:00,
2013-09-17 06:34:00,52.8,48.4,30.01,South,178,8.0,11.0,85,0.00,,CLR,0.00,VWS V14.00,2013-09-17 11:34:00,
2013-09-17 06:39:00,52.8,48.4,30.01,SE,135,4.0,13.0,85,0.00,,CLR,0.00,VWS V14.00,2013-09-17 11:39:00,
2013-09-17 06:44:00,52.8,48.4,30.01,South,170,3.0,12.0,85,0.00,,CLR,0.00,VWS V14.00,2013-09-17 11:44:00,
2013-09-17 06:49:00,52.9,48.5,30.01,South,170,10.0,13.0,85,0.00,,CLR,0.00,VWS V14.00,2013-09-17 11:49:00,
2013-09-17 06:54:00,53.0,48.3,30.01,South,169,6.0,10.0,84,0.00,,CLR,0.00,VWS V14.00,2013-09-17 11:54:00,
2013-09-17 06:59:00,53.0,48.3,30.00,SSE,166,6.0,11.0,84,0.00,,CLR,0.00,VWS V14.00,2013-09-17 11:59:00,
2013-09-17 07:04:00,53.0,48.3,30.00,ESE,112,0.0,13.0,84,0.00,,BKN038,0.00,VWS V14.00,2013-09-17 12:04:00,
2013-09-17 07:09:00,53.0,48.6,30.00,SE,141,6.0,13.0,85,0.00,,BKN038,0.00,VWS V14.00,2013-09-17 12:09:00,
2013-09-17 07:14:00,53.0,48.3,30.00,SSE,148,3.0,12.0,84,0.00,,BKN038,0.00,VWS V14.00,2013-09-17 12:14:00,
2013-09-17 07:19:00,53.2,48.8,30.00,SSE,167,5.0,12.0,85,0.00,,BKN038,0.00,VWS V14.00,2013-09-17 12:19:00,
2013-09-17 07:24:00,53.3,48.6,30.00,SSE,165,6.0,10.0,84,0.00,,BKN038,0.00,VWS V14.00,2013-09-17 12:24:00,
2013-09-17 07:29:00,53.4,48.7,30.00,SE,142,3.0,10.0,84,0.00,,BKN038,0.00,VWS V14.00,2013-09-17 12:29:00,
2013-09-17 07:34:00,53.6,48.9,30.00,SSE,151,6.0,11.0,84,0.00,,BKN038,0.00,VWS V14.00,2013-09-17 12:34:00,
2013-09-17 07:39:00,53.7,49.0,30.00,SSE,152,4.0,12.0,84,0.00,,BKN038,0.00,VWS V14.00,2013-09-17 12:39:00,
2013-09-17 07:44:00,53.8,49.1,30.00,SSE,167,0.0,9.0,84,0.00,,BKN038,0.00,VWS V14.00,2013-09-17 12:44:00,
2013-09-17 07:49:00,53.9,49.2,30.00,SE,136,1.0,14.0,84,0.00,,BKN038,0.00,VWS V14.00,2013-09-17 12:49:00,
2013-09-17 07:54:00,54.0,49.0,30.00,SE,130,10.0,14.0,83,0.00,,BKN038,0.00,VWS V14.00,2013-09-17 12:54:00,
2013-09-17 07:59:00,54.1,49.1,30.00,SSE,163,7.0,14.0,83,0.00,,BKN038,0.00,VWS V14.00,2013-09-17 12:59:00,
2013-09-17 08:04:00,54.2,49.2,30.00,SE,139,4.0,13.0,83,0.00,,OVC036,0.00,VWS V14.00,2013-09-17 13:04:00,
2013-09-17 08:09:00,54.2,49.2,29.99,SSE,148,7.0,13.0,83,0.00,,OVC036,0.00,VWS V14.00,2013-09-17 13:09:00,
2013-09-17 08:14:00,54.2,49.2,29.99,SSE,160,8.0,10.0,83,0.00,,OVC036,0.00,VWS V14.00,2013-09-17 13:14:00,
2013-09-17 08:19:00,54.2,49.2,29.99,SSE,148,6.0,12.0,83,0.00,,OVC036,0.00,VWS V14.00,2013-09-17 13:19:00,
2013-09-17 08:24:00,54.2,49.2,29.99,SE,127,6.0,15.0,83,0.00,,OVC036,0.00,VWS V14.00,2013-09-17 13:24:00,
2013-09-17 08:29:00,54.3,49.3,29.99,SE,145,6.0,15.0,83,0.00,,OVC036,0.00,VWS V14.00,2013-09-17 13:29:00,
2013-09-17 08:34:00,54.3,49.3,29.99,SSE,157,0.0,14.0,83,0.00,,OVC036,0.00,VWS V14.00,2013-09-17 13:34:00,
2013-09-17 08:39:00,54.4,49.3,29.99,SE,136,10.0,14.0,83,0.00,,OVC036,0.00,VWS V14.00,2013-09-17 13:39:00,
2013-09-17 08:44:00,54.6,49.5,29.99,SE,145,5.0,11.0,83,0.00,,OVC036,0.00,VWS V14.00,2013-09-17 13:44:00,
2013-09-17 08:49:00,54.7,49.7,29.99,SE,143,7.0,11.0,83,0.00,,OVC036,0.00,VWS V14.00,2013-09-17 13:49:00,
2013-09-17 08:54:00,54.8,49.4,29.98,South,173,9.0,14.0,82,0.00,,OVC036,0.00,VWS V14.00,2013-09-17 13:54:00,
2013-09-17 08:59:00,55.0,49.9,29.98,SSE,155,3.0,14.0,83,0.00,,OVC036,0.00,VWS V14.00,2013-09-17 13:59:00,
2013-09-17 09:04:00,55.1,49.7,29.98,SE,142,4.0,13.0,82,0.00,,OVC040,0.00,VWS V14.00,2013-09-17 14:04:00,
2013-09-17 09:09:00,55.3,49.9,29.99,SSE,157,6.0,13.0,82,0.00,,OVC040,0.00,VWS V14.00,2013-09-17 14:09:00,
2013-09-17 09:14:00,55.3,49.6,29.98,South,170,6.0,17.0,81,0.00,,OVC040,0.00,VWS V14.00,2013-09-17 14:14:00,
2013-09-17 09:19:00,55.4,50.0,29.98,SE,143,4.0,18.0,82,0.00,,OVC040,0.00,VWS V14.00,2013-09-17 14:19:00,
2013-09-17 09:24:00,55.5,50.1,29.99,SE,135,8.0,15.0,82,0.00,,OVC040,0.00,VWS V14.00,2013-09-17 14:24:00,
2013-09-17 09:29:00,55.6,50.2,29.98,South,170,3.0,15.0,82,0.00,,OVC040,0.00,VWS V14.00,2013-09-17 14:29:00,
2013-09-17 09:34:00,55.7,50.3,29.98,SE,139,4.0,10.0,82,0.00,,OVC040,0.00,VWS V14.00,2013-09-17 14:34:00,
2013-09-17 09:39:00,55.8,50.1,29.98,SSE,159,6.0,14.0,81,0.00,,OVC040,0.00,VWS V14.00,2013-09-17 14:39:00,
2013-09-17 09:44:00,55.8,50.1,29.98,SE,143,7.0,14.0,81,0.00,,OVC040,0.00,VWS V14.00,2013-09-17 14:44:00,
2013-09-17 09:49:00,55.8,50.4,29.98,SSE,162,0.0,14.0,82,0.00,,OVC040,0.00,VWS V14.00,2013-09-17 14:49:00,
2013-09-17 09:54:00,55.9,50.2,29.98,SSE,155,0.0,13.0,81,0.00,,OVC040,0.00,VWS V14.00,2013-09-17 14:54:00,
2013-09-17 10:00:00,56.0,50.6,29.98,SSE,150,0.0,15.0,82,0.00,,OVC040,0.00,VWS V14.00,2013-09-17 15:00:00,
2013-09-17 10:04:00,56.0,50.3,29.98,SE,140,12.0,14.0,81,0.00,,OVC040,0.00,VWS V14.00,2013-09-17 15:04:00,
2013-09-17 10:09:00,56.1,50.4,29.98,SE,130,4.0,14.0,81,0.00,,OVC040,0.00,VWS V14.00,2013-09-17 15:09:00,
2013-09-17 10:15:00,56.2,50.5,29.97,SSE,159,2.0,15.0,81,0.00,,OVC040,0.00,VWS V14.00,2013-09-17 15:15:00,
2013-09-17 10:20:00,56.1,50.4,29.97,South,173,8.0,15.0,81,0.00,,OVC040,0.00,VWS V14.00,2013-09-17 15:20:00,
2013-09-17 10:25:00,56.3,50.5,29.97,SSE,153,6.0,14.0,81,0.00,,OVC040,0.00,VWS V14.00,2013-09-17 15:25:00,
2013-09-17 10:30:00,56.3,50.9,29.97,SE,132,3.0,14.0,82,0.00,,OVC040,0.00,VWS V14.00,2013-09-17 15:30:00,
2013-09-17 10:35:00,56.4,50.7,29.97,ESE,119,6.0,10.0,81,0.00,,OVC040,0.00,VWS V14.00,2013-09-17 15:35:00,
2013-09-17 10:40:00,56.5,51.1,29.97,South,170,9.0,9.0,82,0.00,,OVC040,0.00,VWS V14.00,2013-09-17 15:40:00,
2013-09-17 10:45:00,56.6,51.2,29.97,SSE,151,2.0,12.0,82,0.00,,OVC040,0.00,VWS V14.00,2013-09-17 15:45:00,
2013-09-17 10:50:00,56.8,51.0,29.97,SE,145,3.0,4.0,81,0.00,,OVC040,0.00,VWS V14.00,2013-09-17 15:50:00,
2013-09-17 10:55:00,57.0,51.2,29.97,SE,140,7.0,13.0,81,0.00,,OVC040,0.00,VWS V14.00,2013-09-17 15:55:00,
2013-09-17 11:00:00,57.2,51.4,29.97,South,172,0.0,0.0,81,0.00,,OVC040,0.00,VWS V14.00,2013-09-17 16:00:00,
2013-09-17 11:05:00,57.3,51.5,29.97,SE,126,1.0,11.0,81,0.00,,OVC036,0.00,VWS V14.00,2013-09-17 16:05:00,
2013-09-17 11:10:00,57.6,51.8,29.96,SSE,162,3.0,16.0,81,0.00,,OVC036,0.00,VWS V14.00,2013-09-17 16:10:00,
2013-09-17 11:15:00,57.9,51.8,29.96,SE,144,5.0,16.0,80,0.00,,OVC036,0.00,VWS V14.00,2013-09-17 16:15:00,
2013-09-17 11:20:00,58.2,52.4,29.96,SSE,147,5.0,8.0,81,0.00,,OVC036,0.00,VWS V14.00,2013-09-17 16:20:00,
2013-09-17 11:25:00,58.3,52.2,29.96,SSE,154,0.0,17.0,80,0.00,,OVC036,0.00,VWS V14.00,2013-09-17 16:25:00,
2013-09-17 11:30:00,58.5,52.4,29.96,SE,133,6.0,11.0,80,0.00,,OVC036,0.00,VWS V14.00,2013-09-17 16:30:00,
2013-09-17 11:35:00,58.5,52.4,29.95,South,172,3.0,14.0,80,0.00,,OVC036,0.00,VWS V14.00,2013-09-17 16:35:00,
2013-09-17 11:40:00,58.6,52.5,29.96,SSE,161,2.0,9.0,80,0.00,,OVC036,0.00,VWS V14.00,2013-09-17 16:40:00,
2013-09-17 11:45:00,58.8,52.3,29.95,SSE,155,2.0,10.0,79,0.00,,OVC040,0.00,VWS V14.00,2013-09-17 16:45:00,
2013-09-17 11:50:00,58.9,52.4,29.95,SE,143,19.0,19.0,79,0.00,,OVC040,0.00,VWS V14.00,2013-09-17 16:50:00,
2013-09-17 11:55:00,59.0,52.5,29.96,SSE,150,5.0,19.0,79,0.00,,OVC040,0.00,VWS V14.00,2013-09-17 16:55:00,
2013-09-17 12:00:00,59.1,52.6,29.95,SE,145,3.0,9.0,79,0.00,,OVC040,0.00,VWS V14.00,2013-09-17 17:00:00,
2013-09-17 12:05:00,59.1,52.6,29.95,SSE,154,6.0,14.0,79,0.00,,OVC040,0.00,VWS V14.00,2013-09-17 17:05:00,
2013-09-17 12:10:00,59.1,52.9,29.95,SSE,161,0.0,6.0,80,0.00,,OVC040,0.00,VWS V14.00,2013-09-17 17:10:00,
2013-09-17 12:15:00,59.3,52.8,29.95,South,177,4.0,13.0,79,0.00,,OVC040,0.00,VWS V14.00,2013-09-17 17:15:00,
2013-09-17 12:20:00,59.4,52.9,29.95,South,172,3.0,9.0,79,0.00,,OVC040,0.00,VWS V14.00,2013-09-17 17:20:00,
2013-09-17 12:25:00,59.6,53.1,29.94,SSE,160,3.0,13.0,79,0.00,,OVC040,0.00,VWS V14.00,2013-09-17 17:25:00,
2013-09-17 12:30:00,59.7,53.2,29.94,SE,133,7.0,8.0,79,0.00,,OVC040,0.00,VWS V14.00,2013-09-17 17:30:00,
2013-09-17 12:35:00,59.8,53.3,29.94,South,172,4.0,11.0,79,0.00,,OVC040,0.00,VWS V14.00,2013-09-17 17:35:00,
2013-09-17 12:40:00,59.9,53.4,29.94,SSE,158,1.0,6.0,79,0.00,,OVC040,0.00,VWS V14.00,2013-09-17 17:40:00,
2013-09-17 12:45:00,60.1,53.6,29.93,SSE,153,5.0,12.0,79,0.00,,OVC040,0.00,VWS V14.00,2013-09-17 17:45:00,
2013-09-17 12:50:00,60.4,53.9,29.93,SSE,156,6.0,8.0,79,0.00,,OVC040,0.00,VWS V14.00,2013-09-17 17:50:00,
2013-09-17 12:55:00,60.8,54.3,29.93,SSE,164,5.0,18.0,79,0.00,,OVC040,0.00,VWS V14.00,2013-09-17 17:55:00,
2013-09-17 13:00:00,61.0,54.1,29.93,SSE,159,2.0,7.0,78,0.00,,OVC041,0.00,VWS V14.00,2013-09-17 18:00:00,
2013-09-17 13:05:00,61.2,54.3,29.93,SSE,153,1.0,19.0,78,0.00,,OVC041,0.00,VWS V14.00,2013-09-17 18:05:00,
2013-09-17 13:10:00,61.5,54.2,29.92,SSE,160,1.0,12.0,77,0.00,,OVC041,0.00,VWS V14.00,2013-09-17 18:10:00,
2013-09-17 13:15:00,61.5,54.2,29.93,South,171,5.0,15.0,77,0.00,,OVC041,0.00,VWS V14.00,2013-09-17 18:15:00,
2013-09-17 13:21:00,61.5,54.6,29.93,SE,145,5.0,8.0,78,0.00,,OVC041,0.00,VWS V14.00,2013-09-17 18:21:00,
2013-09-17 13:26:00,61.3,54.4,29.92,SSE,163,5.0,15.0,78,0.00,,OVC041,0.00,VWS V14.00,2013-09-17 18:26:00,
2013-09-17 13:31:00,61.3,54.4,29.92,SSE,153,0.0,12.0,78,0.00,,OVC041,0.00,VWS V14.00,2013-09-17 18:31:00,
2013-09-17 13:36:00,61.3,54.4,29.92,SSE,161,3.0,14.0,78,0.00,,OVC041,0.00,VWS V14.00,2013-09-17 18:36:00,
2013-09-17 13:41:00,61.3,54.4,29.92,SE,143,14.0,14.0,78,0.00,,OVC041,0.00,VWS V14.00,2013-09-17 18:41:00,
2013-09-17 13:46:00,61.4,54.5,29.92,SSE,147,0.0,16.0,78,0.00,,OVC041,0.00,VWS V14.00,2013-09-17 18:46:00,
2013-09-17 13:51:00,61.3,54.4,29.91,SSE,153,3.0,13.0,78,0.00,,OVC041,0.00,VWS V14.00,2013-09-17 18:51:00,
2013-09-17 13:56:00,61.3,54.4,29.91,SSE,150,3.0,20.0,78,0.00,,OVC041,0.00,VWS V14.00,2013-09-17 18:56:00,
2013-09-17 14:01:00,61.4,54.8,29.91,SSE,149,15.0,15.0,79,0.00,,OVC018,0.00,VWS V14.00,2013-09-17 19:01:00,
2013-09-17 14:06:00,61.5,54.6,29.91,South,173,4.0,16.0,78,0.00,,OVC018,0.00,VWS V14.00,2013-09-17 19:06:00,
2013-09-17 14:11:00,61.6,54.7,29.91,SSE,155,0.0,6.0,78,0.00,,OVC018,0.00,VWS V14.00,2013-09-17 19:11:00,
2013-09-17 14:16:00,61.8,54.9,29.90,SSE,153,4.0,11.0,78,0.00,,OVC018,0.00,VWS V14.00,2013-09-17 19:16:00,
2013-09-17 14:21:00,61.8,54.9,29.89,South,188,7.0,10.0,78,0.00,,OVC018,0.00,VWS V14.00,2013-09-17 19:21:00,
2013-09-17 14:26:00,62.0,55.1,29.89,SSE,149,7.0,13.0,78,0.00,,OVC018,0.00,VWS V14.00,2013-09-17 19:26:00,
2013-09-17 14:31:00,62.2,55.3,29.89,South,177,13.0,18.0,78,0.00,,OVC018,0.00,VWS V14.00,2013-09-17 19:31:00,
2013-09-17 14:36:00,62.1,54.8,29.89,SE,139,0.0,18.0,77,0.00,,OVC018,0.00,VWS V14.00,2013-09-17 19:36:00,
2013-09-17 14:41:00,62.3,55.4,29.89,SSE,162,11.0,13.0,78,0.00,,OVC018,0.00,VWS V14.00,2013-09-17 19:41:00,
2013-09-17 14:46:00,62.4,55.5,29.89,SSE,162,7.0,17.0,78,0.00,,OVC018,0.00,VWS V14.00,2013-09-17 19:46:00,
2013-09-17 14:51:00,62.3,55.0,29.89,SE,140,4.0,9.0,77,0.00,,OVC018,0.00,VWS V14.00,2013-09-17 19:51:00,
2013-09-17 14:56:00,62.3,55.0,29.89,SSE,164,0.0,15.0,77,0.00,,OVC018,0.00,VWS V14.00,2013-09-17 19:56:00,
2013-09-17 15:01:00,62.4,55.1,29.89,SSE,151,0.0,14.0,77,0.00,,OVC018,0.00,VWS V14.00,2013-09-17 20:01:00,
2013-09-17 15:06:00,62.4,55.1,29.89,SE,142,10.0,14.0,77,0.00,,OVC018,0.00,VWS V14.00,2013-09-17 20:06:00,
2013-09-17 15:11:00,62.4,55.5,29.88,SSE,148,0.0,12.0,78,0.00,,OVC018,0.00,VWS V14.00,2013-09-17 20:11:00,
2013-09-17 15:16:00,62.5,55.6,29.88,South,185,13.0,15.0,78,0.00,,OVC018,0.00,VWS V14.00,2013-09-17 20:16:00,
2013-09-17 15:21:00,62.6,55.3,29.88,SSE,150,4.0,11.0,77,0.00,,OVC018,0.00,VWS V14.00,2013-09-17 20:21:00,
2013-09-17 15:26:00,62.8,55.8,29.88,SSE,151,5.0,13.0,78,0.00,,OVC018,0.00,VWS V14.00,2013-09-17 20:26:00,
2013-09-17 15:31:00,62.9,55.6,29.87,SSE,147,4.0,16.0,77,0.00,,OVC018,0.00,VWS V14.00,2013-09-17 20:31:00,
2013-09-17 15:36:00,63.1,55.8,29.87,SSE,152,0.0,16.0,77,0.00,,OVC018,0.00,VWS V14.00,2013-09-17 20:36:00,
2013-09-17 15:41:00,63.5,56.2,29.87,SE,134,1.0,8.0,77,0.00,,OVC018,0.00,VWS V14.00,2013-09-17 20:41:00,
2013-09-17 15:46:00,63.6,55.9,29.87,SE,132,8.0,14.0,76,0.00,,OVC018,0.00,VWS V14.00,2013-09-17 20:46:00,
2013-09-17 15:51:00,63.7,56.4,29.87,SE,134,6.0,11.0,77,0.00,,OVC018,0.00,VWS V14.00,2013-09-17 20:51:00,
2013-09-17 15:56:00,63.7,56.0,29.86,SE,135,9.0,11.0,76,0.00,,OVC018,0.00,VWS V14.00,2013-09-17 20:56:00,
2013-09-17 16:01:00,63.9,56.2,29.86,SE,131,4.0,16.0,76,0.00,,OVC020,0.00,VWS V14.00,2013-09-17 21:01:00,
2013-09-17 16:07:00,64.0,56.3,29.86,South,174,5.0,16.0,76,0.00,,OVC020,0.00,VWS V14.00,2013-09-17 21:07:00,
2013-09-17 16:12:00,64.2,56.5,29.86,SSE,147,6.0,13.0,76,0.00,,OVC020,0.00,VWS V14.00,2013-09-17 21:12:00,
2013-09-17 16:17:00,64.6,56.9,29.85,South,172,2.0,13.0,76,0.00,,OVC020,0.00,VWS V14.00,2013-09-17 21:17:00,
2013-09-17 16:22:00,64.8,57.1,29.85,SE,132,11.0,18.0,76,0.00,,OVC020,0.00,VWS V14.00,2013-09-17 21:22:00,
2013-09-17 16:27:00,64.8,56.7,29.85,SE,145,8.0,18.0,75,0.00,,OVC020,0.00,VWS V14.00,2013-09-17 21:27:00,
2013-09-17 16:32:00,64.5,56.4,29.85,SE,126,4.0,13.0,75,0.00,,OVC020,0.00,VWS V14.00,2013-09-17 21:32:00,
2013-09-17 16:37:00,64.5,56.8,29.85,SSE,167,0.0,13.0,76,0.00,,OVC020,0.00,VWS V14.00,2013-09-17 21:37:00,
2013-09-17 16:42:00,64.5,56.8,29.85,SE,143,12.0,20.0,76,0.00,,OVC020,0.00,VWS V14.00,2013-09-17 21:42:00,
2013-09-17 16:47:00,64.6,56.9,29.85,South,169,6.0,20.0,76,0.00,,OVC020,0.00,VWS V14.00,2013-09-17 21:47:00,
2013-09-17 16:52:00,64.7,56.6,29.85,South,177,9.0,15.0,75,0.00,,OVC020,0.00,VWS V14.00,2013-09-17 21:52:00,
2013-09-17 16:57:00,64.7,57.0,29.85,SSE,161,1.0,18.0,76,0.00,,OVC020,0.00,VWS V14.00,2013-09-17 21:57:00,
2013-09-17 17:02:00,64.7,57.0,29.84,SSE,150,9.0,10.0,76,0.00,,OVC022,0.00,VWS V14.00,2013-09-17 22:02:00,
2013-09-17 17:07:00,64.7,57.0,29.84,SSE,160,4.0,19.0,76,0.00,,OVC022,0.00,VWS V14.00,2013-09-17 22:07:00,
2013-09-17 17:12:00,64.8,57.1,29.84,SE,134,4.0,14.0,76,0.00,,OVC022,0.00,VWS V14.00,2013-09-17 22:12:00,
2013-09-17 17:17:00,64.9,56.8,29.84,SE,142,12.0,19.0,75,0.00,,OVC022,0.00,VWS V14.00,2013-09-17 22:17:00,
2013-09-17 17:22:00,64.9,57.2,29.84,SSE,153,8.0,17.0,76,0.00,,OVC042,0.00,VWS V14.00,2013-09-17 22:22:00,
2013-09-17 17:27:00,65.1,57.0,29.83,SE,139,4.0,17.0,75,0.00,,OVC042,0.00,VWS V14.00,2013-09-17 22:27:00,
2013-09-17 17:32:00,65.1,57.0,29.84,South,171,2.0,16.0,75,0.00,,OVC042,0.00,VWS V14.00,2013-09-17 22:32:00,
2013-09-17 17:37:00,65.1,57.0,29.84,SE,135,2.0,16.0,75,0.00,,OVC042,0.00,VWS V14.00,2013-09-17 22:37:00,
2013-09-17 17:42:00,65.0,57.3,29.84,SE,144,8.0,13.0,76,0.00,,OVC042,0.00,VWS V14.00,2013-09-17 22:42:00,
2013-09-17 17:47:00,65.0,57.3,29.84,SSE,148,5.0,15.0,76,0.00,,OVC042,0.00,VWS V14.00,2013-09-17 22:47:00,
2013-09-17 17:52:00,65.0,57.3,29.83,SE,141,6.0,17.0,76,0.00,,OVC042,0.00,VWS V14.00,2013-09-17 22:52:00,
2013-09-17 17:57:00,65.0,57.3,29.83,South,170,2.0,17.0,76,0.00,,OVC042,0.00,VWS V14.00,2013-09-17 22:57:00,
2013-09-17 18:02:00,64.9,56.8,29.83,SE,137,4.0,14.0,75,0.00,,OVC042,0.00,VWS V14.00,2013-09-17 23:02:00,
2013-09-17 18:07:00,64.8,57.1,29.83,SSE,158,0.0,14.0,76,0.00,,OVC042,0.00,VWS V14.00,2013-09-17 23:07:00,
2013-09-17 18:12:00,64.7,57.0,29.83,SE,137,13.0,15.0,76,0.00,,OVC042,0.00,VWS V14.00,2013-09-17 23:12:00,
2013-09-17 18:17:00,64.6,56.9,29.83,South,174,1.0,17.0,76,0.00,,OVC042,0.00,VWS V14.00,2013-09-17 23:17:00,
2013-09-17 18:22:00,64.4,56.7,29.83,SE,144,9.0,17.0,76,0.00,,OVC042,0.00,VWS V14.00,2013-09-17 23:22:00,
2013-09-17 18:27:00,64.3,56.6,29.83,SE,133,7.0,18.0,76,0.00,,OVC042,0.00,VWS V14.00,2013-09-17 23:27:00,
2013-09-17 18:32:00,64.1,56.8,29.83,SSE,156,3.0,10.0,77,0.00,,OVC042,0.00,VWS V14.00,2013-09-17 23:32:00,
2013-09-17 18:37:00,64.1,56.8,29.83,SE,145,8.0,13.0,77,0.00,,OVC044,0.00,VWS V14.00,2013-09-17 23:37:00,
2013-09-17 18:42:00,64.0,56.7,29.83,SSE,156,3.0,11.0,77,0.00,,OVC044,0.00,VWS V14.00,2013-09-17 23:42:00,
2013-09-17 18:47:00,63.9,56.6,29.83,SE,137,15.0,17.0,77,0.00,,OVC044,0.00,VWS V14.00,2013-09-17 23:47:00,
2013-09-17 18:52:00,63.8,56.5,29.83,SSE,156,8.0,11.0,77,0.00,,OVC044,0.00,VWS V14.00,2013-09-17 23:52:00,
2013-09-17 18:57:00,63.7,56.7,29.82,South,180,9.0,11.0,78,0.00,,OVC044,0.00,VWS V14.00,2013-09-17 23:57:00,
2013-09-17 19:02:00,63.6,56.6,29.82,SE,143,6.0,12.0,78,0.00,,OVC042,0.00,VWS V14.00,2013-09-18 00:02:00,
2013-09-17 19:07:00,63.6,56.6,29.82,SE,136,6.0,12.0,78,0.00,,OVC042,0.00,VWS V14.00,2013-09-18 00:07:00,
2013-09-17 19:12:00,63.5,56.9,29.83,SE,130,9.0,12.0,79,0.00,,OVC042,0.00,VWS V14.00,2013-09-18 00:12:00,
2013-09-17 19:17:00,63.4,56.8,29.82,SE,136,7.0,14.0,79,0.00,,OVC042,0.00,VWS V14.00,2013-09-18 00:17:00,
2013-09-17 19:22:00,63.3,56.7,29.83,South,177,6.0,13.0,79,0.00,,OVC042,0.00,VWS V14.00,2013-09-18 00:22:00,
2013-09-17 19:27:00,63.3,56.7,29.83,SE,134,2.0,14.0,79,0.00,,OVC042,0.00,VWS V14.00,2013-09-18 00:27:00,
2013-09-17 19:32:00,63.2,56.6,29.82,SE,138,0.0,7.0,79,0.00,,OVC042,0.00,VWS V14.00,2013-09-18 00:32:00,
2013-09-17 19:37:00,63.1,56.5,29.82,SE,142,0.0,11.0,79,0.00,,OVC042,0.00,VWS V14.00,2013-09-18 00:37:00,
2013-09-17 19:42:00,63.0,56.4,29.82,SE,144,4.0,10.0,79,0.00,,OVC042,0.00,VWS V14.00,2013-09-18 00:42:00,
2013-09-17 19:47:00,62.9,56.3,29.82,SSE,166,2.0,12.0,79,0.00,,OVC042,0.00,VWS V14.00,2013-09-18 00:47:00,
2013-09-17 19:52:00,62.9,56.3,29.82,SE,146,2.0,11.0,79,0.00,,OVC042,0.00,VWS V14.00,2013-09-18 00:52:00,
2013-09-17 19:57:00,62.8,56.2,29.82,SSE,155,2.0,11.0,79,0.00,,OVC042,0.00,VWS V14.00,2013-09-18 00:57:00,
2013-09-17 20:02:00,62.7,56.1,29.82,South,181,4.0,9.0,79,0.00,,OVC022,0.00,VWS V14.00,2013-09-18 01:02:00,
2013-09-17 20:08:00,62.6,56.3,29.82,SE,137,1.0,14.0,80,0.00,,OVC022,0.00,VWS V14.00,2013-09-18 01:08:00,
2013-09-17 20:13:00,62.6,56.3,29.82,SE,141,5.0,8.0,80,0.00,,OVC022,0.00,VWS V14.00,2013-09-18 01:13:00,
2013-09-17 20:18:00,62.5,56.2,29.82,SE,145,0.0,12.0,80,0.00,,OVC022,0.00,VWS V14.00,2013-09-18 01:18:00,
2013-09-17 20:23:00,62.4,56.2,29.82,SE,146,4.0,12.0,80,0.00,,OVC022,0.00,VWS V14.00,2013-09-18 01:23:00,
2013-09-17 20:27:00,62.4,56.2,29.83,SE,127,7.0,12.0,80,0.00,,OVC036,0.00,VWS V14.00,2013-09-18 01:27:00,
2013-09-17 20:33:00,62.3,56.1,29.83,SE,144,0.0,7.0,80,0.00,,OVC036,0.00,VWS V14.00,2013-09-18 01:33:00,
2013-09-17 20:38:00,62.3,56.1,29.83,SE,144,4.0,11.0,80,0.00,,OVC036,0.00,VWS V14.00,2013-09-18 01:38:00,
2013-09-17 20:43:00,62.3,56.1,29.83,SE,142,7.0,7.0,80,0.00,,OVC036,0.00,VWS V14.00,2013-09-18 01:43:00,
2013-09-17 20:48:00,62.2,56.0,29.83,SSE,156,0.0,7.0,80,0.00,,OVC036,0.00,VWS V14.00,2013-09-18 01:48:00,
2013-09-17 20:53:00,62.2,56.0,29.83,SSE,166,13.0,13.0,80,0.00,,OVC036,0.00,VWS V14.00,2013-09-18 01:53:00,
2013-09-17 20:58:00,62.1,55.9,29.83,SE,145,5.0,13.0,80,0.00,,OVC036,0.00,VWS V14.00,2013-09-18 01:58:00,
2013-09-17 21:03:00,62.1,56.2,29.83,SSE,153,1.0,14.0,81,0.00,,OVC036,0.00,VWS V14.00,2013-09-18 02:03:00,
2013-09-17 21:08:00,62.0,55.8,29.83,SE,136,2.0,14.0,80,0.00,,OVC036,0.00,VWS V14.00,2013-09-18 02:08:00,
2013-09-17 21:13:00,61.9,55.7,29.83,SE,130,0.0,7.0,80,0.00,,OVC036,0.00,VWS V14.00,2013-09-18 02:13:00,
2013-09-17 21:18:00,61.9,56.0,29.83,SSE,164,5.0,11.0,81,0.00,,OVC036,0.00,VWS V14.00,2013-09-18 02:18:00,
2013-09-17 21:23:00,61.8,55.9,29.83,SE,143,0.0,9.0,81,0.00,,OVC036,0.00,VWS V14.00,2013-09-18 02:23:00,
2013-09-17 21:28:00,61.7,55.8,29.83,SE,144,4.0,11.0,81,0.00,,OVC036,0.00,VWS V14.00,2013-09-18 02:28:00,
2013-09-17 21:33:00,61.7,55.8,29.83,SSE,164,5.0,11.0,81,0.00,,OVC036,0.00,VWS V14.00,2013-09-18 02:33:00,
2013-09-17 21:38:00,61.6,55.7,29.83,SE,144,0.0,11.0,81,0.00,,OVC036,0.00,VWS V14.00,2013-09-18 02:38:00,
2013-09-17 21:43:00,61.6,55.7,29.83,SSE,147,2.0,12.0,81,0.00,,OVC036,0.00,VWS V14.00,2013-09-18 02:43:00,
2013-09-17 21:48:00,61.5,55.6,29.83,South,171,4.0,12.0,81,0.00,,OVC036,0.00,VWS V14.00,2013-09-18 02:48:00,
2013-09-17 21:53:00,61.5,56.0,29.83,South,171,4.0,9.0,82,0.00,,OVC036,0.00,VWS V14.00,2013-09-18 02:53:00,
2013-09-17 21:58:00,61.4,55.9,29.83,SE,137,3.0,12.0,82,0.00,,OVC036,0.00,VWS V14.00,2013-09-18 02:58:00,
2013-09-17 22:03:00,61.4,55.9,29.84,SSE,149,0.0,13.0,82,0.00,,OVC014,0.00,VWS V14.00,2013-09-18 03:03:00,
2013-09-17 22:08:00,61.3,55.8,29.84,SSE,165,1.0,14.0,82,0.00,,OVC014,0.00,VWS V14.00,2013-09-18 03:08:00,
2013-09-17 22:13:00,61.3,55.8,29.83,SSE,149,1.0,12.0,82,0.00,,OVC014,0.00,VWS V14.00,2013-09-18 03:13:00,
2013-09-17 22:18:00,61.2,56.0,29.83,South,179,1.0,13.0,83,0.00,,OVC014,0.00,VWS V14.00,2013-09-18 03:18:00,
2013-09-17 22:23:00,61.2,56.0,29.84,South,179,0.0,7.0,83,0.00,,OVC014,0.00,VWS V14.00,2013-09-18 03:23:00,
2013-09-17 22:28:00,61.1,55.9,29.84,SSE,153,3.0,8.0,83,0.00,,OVC014,0.00,VWS V14.00,2013-09-18 03:28:00,
2013-09-17 22:33:00,61.0,55.8,29.84,SE,145,5.0,11.0,83,0.00,,OVC014,0.00,VWS V14.00,2013-09-18 03:33:00,
2013-09-17 22:38:00,61.0,55.8,29.84,SE,132,3.0,12.0,83,0.00,,OVC014,0.00,VWS V14.00,2013-09-18 03:38:00,
2013-09-17 22:43:00,60.9,55.7,29.83,South,174,1.0,11.0,83,0.00,,OVC014,0.00,VWS V14.00,2013-09-18 03:43:00,
2013-09-17 22:48:00,60.8,55.9,29.83,SE,143,5.0,11.0,84,0.00,,OVC014,0.00,VWS V14.00,2013-09-18 03:48:00,
2013-09-17 22:53:00,60.7,55.8,29.83,SE,144,0.0,12.0,84,0.00,,OVC014,0.00,VWS V14.00,2013-09-18 03:53:00,
2013-09-17 22:58:00,60.7,55.8,29.83,SSE,152,4.0,12.0,84,0.00,,OVC014,0.00,VWS V14.00,2013-09-18 03:58:00,
2013-09-17 23:01:00,60.6,56.1,29.83,South,184,8.0,9.0,85,0.00,,OVC012,0.00,VWS V14.00,2013-09-18 04:01:00,
2013-09-17 23:06:00,60.6,56.1,29.83,South,185,9.0,11.0,85,0.00,,OVC012,0.00,VWS V14.00,2013-09-18 04:06:00,
2013-09-17 23:11:00,60.5,56.0,29.83,SSE,161,0.0,3.0,85,0.00,,OVC012,0.00,VWS V14.00,2013-09-18 04:11:00,
2013-09-17 23:16:00,60.5,56.0,29.82,SSE,158,1.0,7.0,85,0.00,,OVC012,0.00,VWS V14.00,2013-09-18 04:16:00,
2013-09-17 23:21:00,60.4,55.9,29.82,SSE,147,0.0,0.0,85,0.00,,OVC012,0.00,VWS V14.00,2013-09-18 04:21:00,
2013-09-17 23:27:00,60.4,56.2,29.82,SE,134,5.0,10.0,86,0.00,,OVC012,0.00,VWS V14.00,2013-09-18 04:27:00,
2013-09-17 23:32:00,60.3,56.1,29.82,SSE,166,5.0,8.0,86,0.00,,OVC012,0.00,VWS V14.00,2013-09-18 04:32:00,
2013-09-17 23:37:00,60.2,56.0,29.82,SSE,159,11.0,12.0,86,0.00,,OVC012,0.00,VWS V14.00,2013-09-18 04:37:00,
2013-09-17 23:42:00,60.2,56.0,29.82,SSE,160,2.0,7.0,86,0.00,,OVC012,0.00,VWS V14.00,2013-09-18 04:42:00,
2013-09-17 23:47:00,60.1,55.9,29.82,SE,146,3.0,11.0,86,0.00,,OVC012,0.00,VWS V14.00,2013-09-18 04:47:00,
2013-09-17 23:52:00,60.1,55.9,29.82,SE,138,3.0,10.0,86,0.00,,OVC012,0.00,VWS V14.00,2013-09-18 04:52:00,
2013-09-17 23:57:00,60.0,56.1,29.82,South,173,4.0,10.0,87,0.00,,OVC012,0.00,VWS V14.00,2013-09-18 04:57:00,